Regional Weather Roundup
Issued by NWS

Home | Current Version | Previous Version | Graphics & Text | Print | Product List | Glossary On
Versions: 1 2 3 4 5 6 7 8 9 10 11 12 13 14 15 16 17 18 19 20 21 22 23 24 25 26 27 28 29 30 31 32 33 34 35 36 37 38 39 40 41 42 43 44 45 46 47 48 49 50
000
ASUS43 KLOT 281908
RWRIL

ILLINOIS REGIONAL WEATHER ROUNDUP
NATIONAL WEATHER SERVICE CHICAGO/ROMEOVILLE IL
200 PM CDT FRI APR 28 2017

NOTE: "FAIR" INDICATES FEW OR NO CLOUDS BELOW 12,000 FEET WITH NO
SIGNIFICANT WEATHER AND/OR OBSTRUCTIONS TO VISIBILITY.

* THESE STATIONS ARE NOT UNDER NWS QUALITY CONTROL. THEY ALSO MAY NOT
  REPORT WEATHER SUCH AS PRECIPITATION OR FOG.

ILZ001-002-007-009-015-016-024-282000-
NORTHWEST ILLINOIS

CITY           SKY/WX    TMP DP  RH WIND       PRES   REMARKS
MOLINE         CLOUDY    46  42  86 NE10      29.84F
STERLING*      CLOUDY    49  46  90 NE10      29.87F
SAVANNA*       DRIZZLE   46  42  88 NE9       29.88F
$$

ILZ003-004-008-010-011-017-018-282000-
NORTH CENTRAL ILLINOIS

CITY           SKY/WX    TMP DP  RH WIND       PRES   REMARKS
ROCKFORD       LGT RAIN  51  44  77 E7        29.93F
FREEPORT*      LGT RAIN  46  40  82 NE6       29.93F
ROCHELLE*      CLOUDY    52  48  84 E10       29.90F
DE KALB*       DRIZZLE   53  47  80 SE8       29.91F
PERU*          CLOUDY    52  50  93 E8        29.87F FOG
$$

ILZ005-006-012>014-019>023-282000-
NORTHEAST ILLINOIS

CITY           SKY/WX    TMP DP  RH WIND       PRES   REMARKS
CHICAGO-OHARE  CLOUDY    58  45  62 VRB6      29.91F
CHICAGO-MIDWAY CLOUDY    55  46  71 NE7       29.92F
AURORA         LGT RAIN  55  50  83 SE7       29.91F
LANSING*       CLOUDY    56  48  74 E7        29.91F
JOLIET*        CLOUDY    58  50  76 CALM      29.91S
WAUKEGAN       CLOUDY    48  41  76 E7        29.93F
DUPAGE AIRPORT LGT RAIN  56  50  80 S8        29.91F
KANKAKEE*      CLOUDY    58  48  71 SE13      29.90F
WHEELING       CLOUDY    53  44  71 E7        29.93F
MORRIS*        CLOUDY    56  49  79 E3        29.90F
ROMEOVILLE*    CLOUDY    56  51  82 SE3       29.90F
NORTHERLY ISL    N/A     48  43  82 NE7         N/A
$$

LMZ740>746-282000-
SOUTHERN LAKE MICHIGAN

STATION/POSITION SKY/WX   TEMP    WIND        PRES    VSBY  WAVE
                          AIR SEA DIR/SP/G                  HT/PER
                          (F)     (DEG/KT/KT) (MB)    (MI)  (FT/S)
SOUTHERN BUOY              43 42  130/  2/  4 1015.5          1
HARRISON CRIB              46      80/  9/ 10   N/A
BURNHAM HARBOR             48      10/  5/  9   N/A
CALUMET HARBOR             48      30/  6/  8 1012.6F
BURNS HARBOR               57     110/ 10/ 13 1013.2F
MICHIGAN CITY              57     100/  6/  8   N/A
MICHIGAN CITY 6N           51 46                N/A           1
ST. JOSEPH                 49 48   50/  8/  8 1014.4          1
$$

ILZ025>027-034>036-040-047-049-050-058-095>099-282000-
WEST-CENTRAL ILLINOIS

CITY           SKY/WX    TMP DP  RH WIND       PRES   REMARKS
QUINCY         CLOUDY    56  54  93 S3        29.74R
GALESBURG*     CLOUDY    50  49  95 E10       29.80S FOG
MACOMB*        CLOUDY    55  55  97 SE10      29.82R
JACKSONVILLE*  LGT RAIN  56  53  90 SE10      29.80F
PITTSFIELD*    CLOUDY    57  56  97 SE12      29.76F
$$

ILZ028>032-037-038-041>044-048-051>054-059>061-282000-
CENTRAL ILLINOIS

CITY           SKY/WX    TMP DP  RH WIND       PRES   REMARKS
PONTIAC        CLOUDY    58  53  83 SE13G18   29.89F
BLOOMINGTON    LGT RAIN  56  52  86 SE13      29.85F
DECATUR        LGT RAIN  55  54  96 SE13      29.83F
PEORIA         CLOUDY    56  53  90 SE8       29.81F
LACON*         CLOUDY    53  51  93 E8        29.83F
LINCOLN*       LGT RAIN  57  55  90 SE13      29.83S
SPRINGFIELD    LGT RAIN  59  55  87 S12       29.81F
TAYLORVILLE    TSTM      53  51  94 SE10      29.81F
$$

ILZ033-039-045-046-055>057-062-063-282000-
EAST-CENTRAL ILLINOIS

CITY           SKY/WX    TMP DP  RH WIND       PRES   REMARKS
CHAMPAIGN      LGT RAIN  54  51  90 SE15      29.87F
RANTOUL*       LGT RAIN  56  54  91 SE15      29.86F
MATTOON        CLOUDY    53  51  93 E10       29.84F
PARIS*         CLOUDY    53  51  92 E5        29.91F
$$

ILZ079-100>102-282000-
SOUTHWEST ILLINOIS

CITY           SKY/WX    TMP DP  RH WIND       PRES   REMARKS
ALTON          TSTM      54  52  94 NE15      29.75F FOG
BELLEVILLE     CLOUDY    58  58  99 NE8       29.71F
CAHOKIA*       CLOUDY    58  53  84 CALM      29.75F
SPARTA*        RAIN      63  55  77 E12       29.75F
$$

ILZ064>066-069>071-074>076-080>082-084>086-088>090-092>094-282000-
SOUTH-CENTRAL ILLINOIS

CITY           SKY/WX    TMP DP  RH WIND       PRES   REMARKS
CARBONDALE     CLOUDY    67  60  78 SE10      29.77S
CAIRO*         CLOUDY    71  65  82 SE10      29.75F
EFFINGHAM*     CLOUDY    59  55  88 E15       29.83F
MARION         LGT RAIN  68  63  83 SE12G18   29.77F
MT. VERNON       N/A     64  56  75 E13G20    29.79F
CENTRALIA*     CLOUDY    62  56  79 E13G20    29.77F
SALEM*         CLOUDY    62  54  75 E8G18     29.78F
METROPOLIS*    CLOUDY    71  64  77 E3        29.79F
$$

ILZ067-068-072-073-078-083-087-091-282000-
SOUTHEAST ILLINOIS

CITY           SKY/WX    TMP DP  RH WIND       PRES   REMARKS
LAWRENCEVILLE  CLOUDY    62  53  72 E13       29.87F
FLORA*         CLOUDY    62  55  76 E12       29.82F
FAIRFIELD*     PTSUNNY   66  57  71 E9        29.79F
HARRISBURG*    CLOUDY    68  60  77 SE15      29.78F
ROBINSON*      CLOUDY    59  52  78 E10       29.88F
CARMI*         PTSUNNY   69  60  74 E13       29.80F
$$

ABBREVIATIONS USED IN REMARKS
   TC - TEMPERATURE IN CELSIUS
  WCI - WIND CHILL INDEX
   HX - HEAT INDEX
  VSB - VISIBILITY
$$





USA.gov is the U.S. government's official web portal to all federal, state and local government web resources and services.